This is the latest recevied weather packets stored in our database for station/object KI4NG. If no packets are shown the sender has not sent any weather packets the latest 10 day(s).
| Time | Temp. | Humidity | Pressure | Rain* | Wind** | Luminosity | Snow |
|---|---|---|---|---|---|---|---|
| 1778036533 | 13.33° C | 98% | 1012 hPa | 4.32 mm | - | 0 W/m² | - |
| 1778036230 | 13.33° C | 98% | 1011.9 hPa | 1.27 mm | - | 0 W/m² | - |
| 1778035927 | 13.33° C | 97% | 1012 hPa | 0 mm | - | 0 W/m² | - |
| 1778035624 | 13.89° C | 96% | 1012.3 hPa | 0 mm | - | 0 W/m² | - |
| 1778035320 | 13.89° C | 95% | 1012.3 hPa | 1.78 mm | - | 0 W/m² | - |
| 1778035016 | 13.89° C | 94% | 1012.3 hPa | 3.05 mm | - | 0 W/m² | - |
| 1778034714 | 13.89° C | 92% | 1011.7 hPa | 4.32 mm | - | 0 W/m² | - |
| 1778034411 | 15° C | 90% | 1011.6 hPa | 3.05 mm | - | 0 W/m² | - |
| 1778034108 | 15° C | 83% | 1012.4 hPa | 1.78 mm | - | 0 W/m² | - |
| 1778033806 | 15.56° C | 81% | 1012.5 hPa | 3.56 mm | - | 0 W/m² | - |
| 1778033503 | 16.11° C | 79% | 1011.5 hPa | 3.05 mm | - | 0 W/m² | - |
| 1778033200 | 16.67° C | 76% | 1010.9 hPa | 1.27 mm | - | 0 W/m² | - |
| 1778032897 | 18.89° C | 63% | 1011.7 hPa | 0 mm | - | 0 W/m² | - |
| 1778032595 | 18.89° C | 56% | 1011.8 hPa | 0 mm | - | 0 W/m² | - |
| 1778032292 | 18.89° C | 55% | 1011.8 hPa | 0 mm | - | 0 W/m² | - |
| 1778031990 | 18.89° C | 55% | 1011.7 hPa | 0 mm | - | 0 W/m² | - |
| 1778031685 | 19.44° C | 53% | 1011.7 hPa | 0 mm | - | 0 W/m² | - |
| 1778031383 | 19.44° C | 53% | 1011.9 hPa | 0 mm | - | 0 W/m² | - |
| 1778031080 | 19.44° C | 52% | 1011.8 hPa | 0 mm | - | 0 W/m² | - |
| 1778030776 | 19.44° C | 51% | 1012 hPa | 0 mm | - | 0 W/m² | - |
| 1778030472 | 19.44° C | 51% | 1011.8 hPa | 0 mm | - | 0 W/m² | - |
| 1778030170 | 19.44° C | 51% | 1011.8 hPa | 0 mm | - | 0 W/m² | - |
| 1778029866 | 19.44° C | 50% | 1011.6 hPa | 0 mm | - | 0 W/m² | - |
| 1778029560 | 20° C | 50% | 1011.4 hPa | 0 mm | - | 0 W/m² | - |
| 1778029256 | 19.44° C | 50% | 1011.4 hPa | 0 mm | - | 0 W/m² | - |
* Rain latest hour (hover to see other rain measurements)
** Current wind speed in m/s (hover to see current wind gust speed)